| time (UTC) | temp F | wind direction | speed MPH | gust MPH | rain 1hr in | rain 24hr in | rain mn in | humidity % | barometer mb |
| 20260510170505 | 66 | 162 | 3.0 | 7.0 | 0.00 | 0.01 | 0.01 | 65 | 1012.1 |
| 20260510170011 | 66 | 176 | 3.0 | 12.0 | 0.00 | 0.01 | 0.01 | 66 | 1012.1 |
| 20260510165505 | 66 | 189 | 7.0 | 12.0 | 0.00 | 0.01 | 0.01 | 64 | 1012.0 |
| 20260510165010 | 66 | 192 | 6.0 | 13.0 | 0.00 | 0.01 | 0.01 | 64 | 1011.9 |
| 20260510164505 | 66 | 193 | 6.0 | 13.0 | 0.00 | 0.01 | 0.01 | 65 | 1011.9 |
| 20260510164007 | 66 | 211 | 8.0 | 14.0 | 0.00 | 0.01 | 0.01 | 67 | 1011.9 |
| 20260510163511 | 67 | 208 | 7.0 | 14.0 | 0.00 | 0.01 | 0.01 | 68 | 1011.9 |
| 20260510163007 | 67 | 199 | 7.0 | 12.0 | 0.00 | 0.01 | 0.01 | 68 | 1011.9 |
| 20260510162507 | 67 | 205 | 6.0 | 12.0 | 0.00 | 0.01 | 0.01 | 69 | 1011.9 |
| 20260510162005 | 67 | 205 | 7.0 | 14.0 | 0.00 | 0.01 | 0.01 | 68 | 1011.9 |
| 20260510161511 | 67 | 206 | 10.0 | 15.0 | 0.00 | 0.01 | 0.01 | 67 | 1012.0 |
| 20260510161008 | 68 | 183 | 7.0 | 13.0 | 0.00 | 0.01 | 0.01 | 67 | 1012.0 |
| 20260510160511 | 68 | 190 | 8.0 | 12.0 | 0.00 | 0.01 | 0.01 | 67 | 1011.9 |
| 20260510160006 | 68 | 194 | 6.0 | 14.0 | 0.00 | 0.01 | 0.01 | 66 | 1011.9 |
| 20260510155507 | 68 | 202 | 11.0 | 17.0 | 0.00 | 0.01 | 0.01 | 64 | 1011.9 |
| 20260510155010 | 68 | 190 | 7.0 | 15.0 | 0.00 | 0.01 | 0.01 | 64 | 1011.8 |
| 20260510154009 | 69 | 200 | 10.0 | 17.0 | 0.00 | 0.01 | 0.01 | 63 | 1012.0 |
| 20260510153506 | 69 | 199 | 7.0 | 16.0 | 0.00 | 0.01 | 0.01 | 63 | 1012.0 |
| 20260510153007 | 69 | 181 | 9.0 | 16.0 | 0.00 | 0.01 | 0.01 | 63 | 1012.1 |
| 20260510152511 | 69 | 199 | 7.0 | 14.0 | 0.00 | 0.01 | 0.01 | 62 | 1012.0 |
| 20260510151505 | 70 | 187 | 8.0 | 16.0 | 0.00 | 0.01 | 0.01 | 61 | 1012.1 |
| 20260510150507 | 71 | 181 | 7.0 | 15.0 | 0.00 | 0.01 | 0.01 | 58 | 1012.0 |
| 20260510150007 | 72 | 168 | 6.0 | 10.0 | 0.00 | 0.01 | 0.01 | 58 | 1012.1 |
| 20260510145507 | 71 | 171 | 5.0 | 13.0 | 0.00 | 0.01 | 0.01 | 58 | 1012.2 |
| 20260510145007 | 71 | 182 | 6.0 | 13.0 | 0.00 | 0.01 | 0.01 | 59 | 1012.3 |
| 20260510144507 | 71 | 194 | 5.0 | 13.0 | 0.00 | 0.01 | 0.01 | 58 | 1012.2 |
| 20260510144007 | 71 | 195 | 7.0 | 13.0 | 0.00 | 0.01 | 0.01 | 58 | 1012.3 |
| 20260510143507 | 71 | 186 | 7.0 | 15.0 | 0.00 | 0.01 | 0.01 | 57 | 1012.5 |
| 20260510143006 | 71 | 189 | 5.0 | 14.0 | 0.00 | 0.01 | 0.01 | 59 | 1012.5 |
| 20260510142506 | 71 | 187 | 7.0 | 12.0 | 0.00 | 0.01 | 0.01 | 57 | 1012.7 |
| 20260510142005 | 71 | 192 | 6.0 | 12.0 | 0.00 | 0.01 | 0.01 | 57 | 1012.7 |
| 20260510141506 | 71 | 181 | 6.0 | 12.0 | 0.00 | 0.01 | 0.01 | 59 | 1012.7 |
| 20260510141007 | 71 | 199 | 5.0 | 12.0 | 0.00 | 0.01 | 0.01 | 61 | 1012.6 |
| 20260510140007 | 70 | 204 | 7.0 | 13.0 | 0.00 | 0.01 | 0.01 | 60 | 1012.7 |
| 20260510135506 | 71 | 216 | 8.0 | 13.0 | 0.00 | 0.01 | 0.01 | 58 | 1012.8 |
| 20260510135008 | 71 | 193 | 5.0 | 14.0 | 0.00 | 0.01 | 0.01 | 58 | 1012.8 |
| 20260510134506 | 71 | 205 | 6.0 | 12.0 | 0.00 | 0.01 | 0.01 | 58 | 1012.8 |
| 20260510134006 | 71 | 184 | 5.0 | 12.0 | 0.00 | 0.01 | 0.01 | 57 | 1012.8 |
| 20260510133007 | 73 | 172 | 5.0 | 14.0 | 0.00 | 0.01 | 0.01 | 57 | 1012.8 |
| 20260510132504 | 73 | 200 | 6.0 | 13.0 | 0.00 | 0.01 | 0.01 | 57 | 1012.8 |
| 20260510132007 | 73 | 215 | 7.0 | 13.0 | 0.00 | 0.01 | 0.01 | 56 | 1012.8 |
| 20260510131504 | 74 | 206 | 6.0 | 12.0 | 0.00 | 0.01 | 0.01 | 54 | 1012.9 |
| 20260510131005 | 74 | 199 | 4.0 | 10.0 | 0.00 | 0.01 | 0.01 | 54 | 1012.8 |
| 20260510130506 | 74 | 196 | 6.0 | 12.0 | 0.00 | 0.01 | 0.01 | 54 | 1012.7 |
| 20260510130006 | 74 | 167 | 6.0 | 13.0 | 0.00 | 0.01 | 0.01 | 53 | 1012.8 |
| 20260510125006 | 75 | 153 | 6.0 | 12.0 | 0.00 | 0.01 | 0.01 | 53 | 1012.9 |
| 20260510124507 | 75 | 186 | 6.0 | 12.0 | 0.00 | 0.01 | 0.01 | 53 | 1012.9 |
| 20260510124006 | 75 | 204 | 5.0 | 12.0 | 0.00 | 0.01 | 0.01 | 53 | 1012.9 |
| 20260510123506 | 75 | 186 | 6.0 | 13.0 | 0.00 | 0.01 | 0.01 | 53 | 1013.0 |
| 20260510123007 | 75 | 173 | 5.0 | 10.0 | 0.00 | 0.01 | 0.01 | 55 | 1013.0 |
| 20260510122507 | 75 | 186 | 5.0 | 12.0 | 0.00 | 0.01 | 0.01 | 54 | 1013.0 |
| 20260510122007 | 74 | 200 | 5.0 | 10.0 | 0.00 | 0.01 | 0.01 | 53 | 1013.0 |
| 20260510121005 | 76 | 215 | 6.0 | 13.0 | 0.00 | 0.01 | 0.01 | 51 | 1013.0 |
| 20260510120507 | 76 | 149 | 5.0 | 10.0 | 0.00 | 0.01 | 0.01 | 51 | 1013.0 |
| 20260510120005 | 76 | 45 | 3.0 | 12.0 | 0.00 | 0.01 | 0.01 | 52 | 1013.0 |
| 20260510115505 | 75 | 118 | 3.0 | 10.0 | 0.00 | 0.01 | 0.01 | 53 | 1013.1 |
| 20260510115008 | 75 | 205 | 2.0 | 10.0 | 0.00 | 0.01 | 0.01 | 54 | 1013.2 |
| 20260510114010 | 75 | 169 | 3.0 | 9.0 | 0.00 | 0.01 | 0.01 | 54 | 1013.4 |
| 20260510113505 | 75 | 208 | 5.0 | 9.0 | 0.00 | 0.01 | 0.01 | 55 | 1013.5 |
| 20260510112507 | 75 | 183 | 3.0 | 6.0 | 0.00 | 0.01 | 0.01 | 55 | 1013.4 |
| 20260510112005 | 74 | 180 | 3.0 | 10.0 | 0.00 | 0.01 | 0.01 | 57 | 1013.5 |
| 20260510111505 | 74 | 194 | 5.0 | 12.0 | 0.00 | 0.01 | 0.01 | 55 | 1013.7 |
| 20260510111006 | 74 | 206 | 5.0 | 12.0 | 0.00 | 0.01 | 0.01 | 53 | 1013.7 |
| 20260510110507 | 74 | 183 | 4.0 | 9.0 | 0.00 | 0.01 | 0.01 | 54 | 1013.8 |
| 20260510110006 | 74 | 207 | 5.0 | 12.0 | 0.00 | 0.01 | 0.01 | 54 | 1013.9 |
| 20260510105505 | 75 | 188 | 6.0 | 13.0 | 0.00 | 0.01 | 0.01 | 53 | 1013.8 |
| 20260510105005 | 76 | 214 | 6.0 | 12.0 | 0.00 | 0.01 | 0.01 | 52 | 1013.8 |
| 20260510104506 | 76 | 178 | 4.0 | 9.0 | 0.00 | 0.01 | 0.01 | 52 | 1013.9 |
| 20260510104007 | 76 | 155 | 2.0 | 6.0 | 0.00 | 0.01 | 0.01 | 53 | 1013.9 |
| 20260510103507 | 76 | 158 | 5.0 | 9.0 | 0.00 | 0.01 | 0.01 | 52 | 1013.9 |
| 20260510103006 | 76 | 88 | 3.0 | 9.0 | 0.00 | 0.01 | 0.01 | 54 | 1013.8 |
| 20260510102507 | 76 | 209 | 4.0 | 9.0 | 0.00 | 0.01 | 0.01 | 54 | 1013.9 |
| 20260510102011 | 76 | 180 | 3.0 | 8.0 | 0.00 | 0.01 | 0.01 | 54 | 1013.8 |
| 20260510101505 | 75 | 172 | 2.0 | 8.0 | 0.00 | 0.01 | 0.01 | 55 | 1013.9 |
| 20260510101007 | 75 | 165 | 2.0 | 6.0 | 0.00 | 0.01 | 0.01 | 55 | 1013.8 |
| 20260510100506 | 75 | 179 | 3.0 | 7.0 | 0.00 | 0.01 | 0.01 | 55 | 1013.9 |
| 20260510100005 | 75 | 68 | 2.0 | 6.0 | 0.00 | 0.01 | 0.01 | 55 | 1013.8 |
| 20260510095506 | 76 | 45 | 2.0 | 6.0 | 0.00 | 0.01 | 0.01 | 54 | 1013.8 |
| 20260510095016 | 75 | 123 | 1.0 | 2.0 | 0.00 | 0.01 | 0.01 | 56 | 1013.9 |
| 20260510094505 | 75 | 155 | 3.0 | 7.0 | 0.00 | 0.01 | 0.01 | 56 | 1014.1 |
| 20260510093010 | 74 | 213 | 5.0 | 8.0 | 0.00 | 0.01 | 0.01 | 58 | 1014.1 |
| 20260510092010 | 74 | 194 | 3.0 | 7.0 | 0.00 | 0.01 | 0.01 | 60 | 1014.2 |
| 20260510091507 | 74 | 238 | 2.0 | 3.0 | 0.00 | 0.01 | 0.01 | 58 | 1014.3 |
| 20260510091007 | 73 | 112 | 0.0 | 2.0 | 0.00 | 0.01 | 0.01 | 58 | 1014.5 |
| 20260510090505 | 73 | 105 | 1.0 | 5.0 | 0.00 | 0.01 | 0.01 | 58 | 1014.6 |
| 20260510085507 | 73 | 194 | 1.0 | 3.0 | 0.00 | 0.01 | 0.01 | 57 | 1014.8 |
| 20260510085007 | 71 | 169 | 1.0 | 2.0 | 0.00 | 0.01 | 0.01 | 60 | 1014.8 |
| 20260510084507 | 70 | 221 | 1.0 | 3.0 | 0.00 | 0.01 | 0.01 | 62 | 1014.8 |
| 20260510084006 | 69 | 211 | 3.0 | 5.0 | 0.00 | 0.01 | 0.01 | 64 | 1014.9 |
| 20260510083507 | 69 | 215 | 2.0 | 3.0 | 0.00 | 0.01 | 0.01 | 66 | 1014.9 |
| 20260510083005 | 69 | 188 | 3.0 | 5.0 | 0.00 | 0.01 | 0.01 | 68 | 1015.0 |
| 20260510082506 | 68 | 196 | 3.0 | 6.0 | 0.00 | 0.01 | 0.01 | 70 | 1015.1 |
| 20260510081507 | 67 | 187 | 4.0 | 8.0 | 0.00 | 0.01 | 0.01 | 70 | 1014.9 |
| 20260510081005 | 67 | 206 | 3.0 | 9.0 | 0.00 | 0.01 | 0.01 | 70 | 1015.0 |
| 20260510080507 | 67 | 210 | 3.0 | 6.0 | 0.00 | 0.01 | 0.01 | 71 | 1015.0 |
| 20260510080007 | 67 | 207 | 3.0 | 6.0 | 0.00 | 0.01 | 0.01 | 71 | 1014.9 |
| 20260510075507 | 66 | 204 | 3.0 | 6.0 | 0.00 | 0.01 | 0.01 | 71 | 1014.8 |
| 20260510075010 | 66 | 185 | 3.0 | 6.0 | 0.00 | 0.01 | 0.01 | 72 | 1014.8 |
| 20260510074510 | 66 | 191 | 2.0 | 3.0 | 0.00 | 0.01 | 0.01 | 74 | 1014.8 |
| 20260510073508 | 64 | 189 | 2.0 | 6.0 | 0.00 | 0.01 | 0.01 | 78 | 1014.7 |
| 20260510073007 | 63 | 203 | 2.0 | 5.0 | 0.00 | 0.01 | 0.01 | 78 | 1014.7 |
| 20260510072506 | 63 | 196 | 3.0 | 5.0 | 0.00 | 0.01 | 0.01 | 79 | 1014.7 |
| 20260510071005 | 61 | 204 | 3.0 | 6.0 | 0.00 | 0.01 | 0.01 | 82 | 1014.7 |
| 20260510070507 | 61 | 206 | 3.0 | 7.0 | 0.00 | 0.01 | 0.01 | 83 | 1014.7 |
| 20260510070010 | 61 | 200 | 3.0 | 5.0 | 0.00 | 0.01 | 0.01 | 83 | 1014.6 |
| 20260510065006 | 61 | 195 | 2.0 | 6.0 | 0.00 | 0.01 | 0.01 | 84 | 1014.6 |
| 20260510064508 | 60 | 170 | 1.0 | 3.0 | 0.00 | 0.01 | 0.01 | 84 | 1014.7 |
| 20260510064007 | 60 | 217 | 2.0 | 3.0 | 0.00 | 0.01 | 0.01 | 84 | 1014.8 |
| 20260510063506 | 60 | 220 | 2.0 | 3.0 | 0.00 | 0.01 | 0.01 | 85 | 1014.9 |
| 20260510062006 | 59 | 193 | 2.0 | 3.0 | 0.00 | 0.01 | 0.01 | 87 | 1014.9 |
| 20260510061505 | 58 | 205 | 2.0 | 5.0 | 0.00 | 0.01 | 0.01 | 87 | 1014.9 |
| 20260510061007 | 58 | 204 | 2.0 | 5.0 | 0.00 | 0.01 | 0.01 | 87 | 1015.0 |
| 20260510060507 | 58 | 200 | 1.0 | 3.0 | 0.00 | 0.01 | 0.01 | 87 | 1014.9 |
| 20260510060006 | 58 | 189 | 3.0 | 7.0 | 0.00 | 0.01 | 0.01 | 87 | 1014.9 |
| 20260510055515 | 58 | 199 | 2.0 | 5.0 | 0.01 | 0.01 | 0.01 | 88 | 1014.9 |
| 20260510054514 | 58 | 219 | 2.0 | 6.0 | 0.01 | 0.01 | 0.01 | 88 | 1014.8 |
| 20260510054007 | 57 | 208 | 2.0 | 3.0 | 0.01 | 0.01 | 0.01 | 88 | 1014.8 |
| 20260510053506 | 57 | 210 | 2.0 | 5.0 | 0.01 | 0.01 | 0.01 | 88 | 1014.8 |
| 20260510053005 | 57 | 196 | 2.0 | 3.0 | 0.01 | 0.01 | 0.01 | 87 | 1014.8 |
| 20260510052507 | 57 | 206 | 2.0 | 3.0 | 0.01 | 0.01 | 0.01 | 87 | 1014.8 |
| 20260510052005 | 58 | 194 | 2.0 | 3.0 | 0.01 | 0.01 | 0.01 | 87 | 1014.9 |
| 20260510051507 | 58 | 201 | 2.0 | 3.0 | 0.01 | 0.01 | 0.01 | 86 | 1014.9 |
| 20260510050505 | 58 | 201 | 2.0 | 3.0 | 0.01 | 0.01 | 0.01 | 85 | 1015.0 |
| 20260510050007 | 58 | 203 | 1.0 | 5.0 | 0.01 | 0.01 | 0.01 | 84 | 1015.1 |
| 20260510045514 | 58 | 211 | 3.0 | 3.0 | 0.00 | 0.00 | 0.00 | 83 | 1015.1 |
| 20260510045007 | 58 | 177 | 1.0 | 3.0 | 0.00 | 0.00 | 0.00 | 83 | 1015.0 |
| 20260510044505 | 58 | 174 | 2.0 | 3.0 | 0.00 | 0.00 | 0.00 | 82 | 1015.0 |
| 20260510044010 | 58 | 180 | 2.0 | 3.0 | 0.00 | 0.00 | 0.00 | 81 | 1015.1 |
| 20260510043505 | 58 | 163 | 2.0 | 3.0 | 0.00 | 0.00 | 0.00 | 81 | 1015.1 |
| 20260510043005 | 59 | 177 | 1.0 | 3.0 | 0.00 | 0.00 | 0.00 | 80 | 1015.2 |
| 20260510042506 | 59 | 195 | 1.0 | 3.0 | 0.00 | 0.00 | 0.00 | 80 | 1015.1 |
| 20260510041510 | 59 | 180 | 2.0 | 5.0 | 0.00 | 0.00 | 0.00 | 78 | 1015.3 |
| 20260510040506 | 60 | 183 | 2.0 | 6.0 | 0.00 | 0.00 | 0.00 | 77 | 1015.4 |
| 20260510040007 | 60 | 209 | 2.0 | 5.0 | 0.00 | 0.00 | 0.00 | 77 | 1015.5 |
| 20260510035507 | 60 | 198 | 3.0 | 6.0 | 0.00 | 0.00 | 0.00 | 77 | 1015.6 |
| 20260510034006 | 59 | 205 | 3.0 | 7.0 | 0.00 | 0.00 | 0.00 | 78 | 1015.7 |
| 20260510033513 | 59 | 204 | 3.0 | 7.0 | 0.00 | 0.00 | 0.00 | 78 | 1015.6 |
| 20260510033005 | 59 | 196 | 3.0 | 7.0 | 0.00 | 0.00 | 0.00 | 78 | 1015.6 |
| 20260510032507 | 59 | 196 | 3.0 | 6.0 | 0.00 | 0.00 | 0.00 | 78 | 1015.5 |
| 20260510032007 | 59 | 195 | 3.0 | 6.0 | 0.00 | 0.00 | 0.00 | 79 | 1015.4 |
| 20260510031507 | 58 | 211 | 4.0 | 8.0 | 0.00 | 0.00 | 0.00 | 81 | 1015.3 |
| 20260510031006 | 57 | 189 | 3.0 | 6.0 | 0.00 | 0.00 | 0.00 | 82 | 1015.3 |
| 20260510030007 | 57 | 200 | 4.0 | 7.0 | 0.00 | 0.00 | 0.00 | 81 | 1015.0 |
| 20260510025505 | 57 | 204 | 2.0 | 3.0 | 0.00 | 0.00 | 0.00 | 80 | 1014.6 |
| 20260510025005 | 57 | 194 | 1.0 | 2.0 | 0.00 | 0.00 | 0.00 | 80 | 1014.4 |
| 20260510024505 | 58 | 185 | 1.0 | 2.0 | 0.00 | 0.00 | 0.00 | 79 | 1014.5 |
| 20260510024007 | 58 | 205 | 2.0 | 3.0 | 0.00 | 0.00 | 0.00 | 79 | 1014.7 |
| 20260510023507 | 58 | 202 | 2.0 | 3.0 | 0.00 | 0.00 | 0.00 | 80 | 1014.9 |
| 20260510023005 | 58 | 202 | 2.0 | 3.0 | 0.00 | 0.00 | 0.00 | 79 | 1015.0 |
| 20260510022505 | 58 | 194 | 2.0 | 3.0 | 0.00 | 0.00 | 0.00 | 79 | 1015.0 |
| 20260510022007 | 58 | 214 | 2.0 | 5.0 | 0.00 | 0.00 | 0.00 | 79 | 1014.9 |
| 20260510021507 | 58 | 195 | 2.0 | 3.0 | 0.00 | 0.00 | 0.00 | 79 | 1014.9 |
| 20260510021006 | 58 | 194 | 2.0 | 3.0 | 0.00 | 0.00 | 0.00 | 79 | 1015.0 |
| 20260510020506 | 58 | 197 | 1.0 | 3.0 | 0.00 | 0.00 | 0.00 | 79 | 1015.1 |
| 20260510020015 | 57 | 195 | 1.0 | 2.0 | 0.00 | 0.00 | 0.00 | 79 | 1015.1 |
| 20260510015508 | 57 | 196 | 1.0 | 3.0 | 0.00 | 0.00 | 0.00 | 79 | 1015.2 |
| 20260510015007 | 57 | 198 | 1.0 | 3.0 | 0.00 | 0.00 | 0.00 | 79 | 1015.2 |
| 20260510014507 | 57 | 199 | 1.0 | 2.0 | 0.00 | 0.00 | 0.00 | 79 | 1015.2 |
| 20260510013510 | 57 | 195 | 1.0 | 3.0 | 0.00 | 0.00 | 0.00 | 79 | 1015.2 |
| 20260510013007 | 57 | 197 | 1.0 | 3.0 | 0.00 | 0.00 | 0.00 | 78 | 1015.2 |
| 20260510012007 | 57 | 201 | 2.0 | 3.0 | 0.00 | 0.00 | 0.00 | 77 | 1014.9 |
| 20260510011506 | 57 | 199 | 1.0 | 2.0 | 0.00 | 0.00 | 0.00 | 77 | 1014.9 |
| 20260510011007 | 57 | 195 | 1.0 | 2.0 | 0.00 | 0.00 | 0.00 | 76 | 1015.1 |
| 20260510010507 | 58 | 197 | 1.0 | 3.0 | 0.00 | 0.00 | 0.00 | 76 | 1015.0 |
| 20260510005007 | 57 | 198 | 2.0 | 3.0 | 0.00 | 0.00 | 0.00 | 77 | 1015.1 |
| 20260510004507 | 57 | 204 | 2.0 | 3.0 | 0.00 | 0.00 | 0.00 | 77 | 1015.1 |
| 20260510004010 | 57 | 196 | 2.0 | 3.0 | 0.00 | 0.00 | 0.00 | 77 | 1015.2 |
| 20260510003507 | 57 | 204 | 2.0 | 5.0 | 0.00 | 0.00 | 0.00 | 77 | 1015.1 |
| 20260510003006 | 57 | 203 | 2.0 | 3.0 | 0.00 | 0.00 | 0.00 | 76 | 1015.1 |
| 20260510002505 | 58 | 210 | 2.0 | 3.0 | 0.00 | 0.00 | 0.00 | 76 | 1015.0 |
| 20260510002006 | 58 | 208 | 2.0 | 3.0 | 0.00 | 0.00 | 0.00 | 75 | 1014.8 |
| 20260510001507 | 58 | 202 | 2.0 | 3.0 | 0.00 | 0.00 | 0.00 | 75 | 1014.9 |
| 20260510001006 | 58 | 194 | 2.0 | 3.0 | 0.00 | 0.00 | 0.00 | 76 | 1015.0 |
| 20260510000505 | 58 | 201 | 2.0 | 3.0 | 0.00 | 0.00 | 0.00 | 76 | 1015.1 |
| 20260510000005 | 58 | 197 | 1.0 | 3.0 | 0.00 | 0.00 | 0.00 | 76 | 1015.1 |
| 20260509235005 | 58 | 200 | 2.0 | 3.0 | 0.00 | 0.00 | 0.00 | 77 | 1015.3 |
| 20260509234507 | 58 | 207 | 1.0 | 3.0 | 0.00 | 0.00 | 0.00 | 77 | 1015.3 |
| 20260509234011 | 58 | 197 | 2.0 | 5.0 | 0.00 | 0.00 | 0.00 | 77 | 1015.4 |
| 20260509233507 | 58 | 206 | 1.0 | 3.0 | 0.00 | 0.00 | 0.00 | 77 | 1015.4 |
| 20260509233007 | 58 | 208 | 2.0 | 5.0 | 0.00 | 0.00 | 0.00 | 77 | 1015.4 |
| 20260509232510 | 58 | 199 | 2.0 | 5.0 | 0.00 | 0.00 | 0.00 | 78 | 1015.4 |
| 20260509232005 | 57 | 210 | 1.0 | 3.0 | 0.00 | 0.00 | 0.00 | 79 | 1015.7 |
| 20260509231505 | 57 | 204 | 2.0 | 3.0 | 0.00 | 0.00 | 0.00 | 81 | 1015.8 |
| 20260509231007 | 57 | 199 | 1.0 | 3.0 | 0.00 | 0.00 | 0.00 | 82 | 1015.8 |
| 20260509230507 | 57 | 198 | 2.0 | 3.0 | 0.00 | 0.00 | 0.00 | 82 | 1015.8 |
| 20260509230007 | 57 | 204 | 2.0 | 3.0 | 0.00 | 0.00 | 0.00 | 82 | 1015.6 |
| 20260509225506 | 57 | 208 | 2.0 | 3.0 | 0.00 | 0.00 | 0.00 | 83 | 1015.6 |
| 20260509225008 | 56 | 197 | 2.0 | 3.0 | 0.00 | 0.00 | 0.00 | 83 | 1015.6 |
| 20260509224505 | 56 | 209 | 2.0 | 5.0 | 0.00 | 0.00 | 0.00 | 84 | 1015.7 |
| 20260509224008 | 56 | 200 | 1.0 | 3.0 | 0.00 | 0.00 | 0.00 | 84 | 1015.7 |
| 20260509223507 | 56 | 198 | 1.0 | 3.0 | 0.00 | 0.00 | 0.00 | 84 | 1015.6 |
| 20260509223007 | 57 | 200 | 1.0 | 3.0 | 0.00 | 0.00 | 0.00 | 84 | 1015.6 |
| 20260509221505 | 57 | 201 | 0.0 | 0.0 | 0.00 | 0.00 | 0.00 | 84 | 1015.5 |
| 20260509221008 | 57 | 201 | 0.0 | 1.0 | 0.00 | 0.00 | 0.00 | 84 | 1015.6 |
| 20260509220505 | 57 | 201 | 0.0 | 0.0 | 0.00 | 0.00 | 0.00 | 83 | 1015.6 |
| 20260509215505 | 57 | 201 | 0.0 | 1.0 | 0.00 | 0.00 | 0.00 | 83 | 1015.8 |
| 20260509215005 | 57 | 201 | 0.0 | 2.0 | 0.00 | 0.00 | 0.00 | 82 | 1016.0 |
| 20260509214507 | 58 | 201 | 1.0 | 3.0 | 0.00 | 0.00 | 0.00 | 81 | 1016.1 |
| 20260509214006 | 58 | 204 | 1.0 | 3.0 | 0.00 | 0.00 | 0.00 | 82 | 1016.2 |
| 20260509213508 | 58 | 201 | 1.0 | 3.0 | 0.00 | 0.00 | 0.00 | 82 | 1016.2 |
| 20260509213008 | 57 | 198 | 1.0 | 3.0 | 0.00 | 0.00 | 0.00 | 82 | 1016.1 |
| 20260509212506 | 57 | 195 | 1.0 | 3.0 | 0.00 | 0.00 | 0.00 | 83 | 1016.2 |
| 20260509212008 | 57 | 194 | 1.0 | 3.0 | 0.00 | 0.00 | 0.00 | 83 | 1016.2 |
| 20260509211508 | 57 | 194 | 1.0 | 2.0 | 0.00 | 0.00 | 0.00 | 83 | 1016.2 |
| 20260509211007 | 57 | 193 | 1.0 | 2.0 | 0.00 | 0.00 | 0.00 | 83 | 1016.4 |
| 20260509210005 | 57 | 193 | 0.0 | 0.0 | 0.00 | 0.00 | 0.00 | 84 | 1016.5 |
| 20260509205007 | 57 | 192 | 0.0 | 0.0 | 0.00 | 0.00 | 0.00 | 85 | 1016.6 |
| 20260509204507 | 57 | 185 | 0.0 | 0.0 | 0.00 | 0.00 | 0.00 | 84 | 1016.6 |
| 20260509203507 | 57 | 184 | 0.0 | 0.0 | 0.00 | 0.00 | 0.00 | 85 | 1016.6 |
| 20260509202007 | 57 | 183 | 0.0 | 0.0 | 0.00 | 0.00 | 0.00 | 84 | 1016.8 |
| 20260509201507 | 57 | 183 | 0.0 | 0.0 | 0.00 | 0.00 | 0.00 | 84 | 1016.9 |
| 20260509201005 | 57 | 182 | 0.0 | 0.0 | 0.00 | 0.00 | 0.00 | 84 | 1016.9 |
| 20260509200006 | 58 | 181 | 0.0 | 0.0 | 0.00 | 0.01 | 0.00 | 84 | 1016.9 |
| 20260509195505 | 58 | 181 | 0.0 | 0.0 | 0.00 | 0.01 | 0.00 | 84 | 1016.9 |
| 20260509195007 | 58 | 181 | 0.0 | 0.0 | 0.00 | 0.01 | 0.00 | 83 | 1017.0 |
| 20260509194506 | 58 | 180 | 0.0 | 0.0 | 0.00 | 0.01 | 0.00 | 82 | 1017.0 |
| 20260509194007 | 58 | 178 | 0.0 | 2.0 | 0.00 | 0.01 | 0.00 | 82 | 1017.0 |
| 20260509193507 | 58 | 178 | 0.0 | 0.0 | 0.00 | 0.01 | 0.00 | 81 | 1016.9 |
| 20260509193010 | 59 | 178 | 0.0 | 1.0 | 0.00 | 0.01 | 0.00 | 81 | 1016.9 |
| 20260509192505 | 59 | 175 | 0.0 | 1.0 | 0.00 | 0.01 | 0.00 | 80 | 1016.9 |
| 20260509192007 | 59 | 194 | 0.0 | 2.0 | 0.00 | 0.01 | 0.00 | 80 | 1016.9 |
| 20260509191507 | 59 | 223 | 0.0 | 1.0 | 0.00 | 0.01 | 0.00 | 79 | 1016.8 |
| 20260509191010 | 60 | 223 | 0.0 | 1.0 | 0.00 | 0.01 | 0.00 | 78 | 1016.7 |
| 20260509190511 | 60 | 223 | 1.0 | 1.0 | 0.00 | 0.01 | 0.00 | 77 | 1016.7 |
| 20260509190007 | 61 | 48 | 0.0 | 0.0 | 0.00 | 0.02 | 0.00 | 76 | 1016.7 |
| 20260509185007 | 61 | 48 | 0.0 | 1.0 | 0.00 | 0.02 | 0.00 | 74 | 1016.5 |
| 20260509184505 | 62 | 48 | 0.0 | 0.0 | 0.00 | 0.02 | 0.00 | 72 | 1016.3 |
| 20260509184010 | 62 | 48 | 0.0 | 1.0 | 0.00 | 0.02 | 0.00 | 72 | 1016.2 |
| 20260509183506 | 62 | 48 | 0.0 | 2.0 | 0.00 | 0.02 | 0.00 | 71 | 1016.1 |
| 20260509182507 | 63 | 40 | 1.0 | 2.0 | 0.00 | 0.02 | 0.00 | 72 | 1016.0 |
| 20260509181007 | 64 | 52 | 0.0 | 3.0 | 0.00 | 0.02 | 0.00 | 70 | 1016.0 |
| 20260509180507 | 64 | 36 | 2.0 | 3.0 | 0.00 | 0.02 | 0.00 | 69 | 1016.0 |
| 20260509180010 | 64 | 42 | 2.0 | 5.0 | 0.00 | 0.02 | 0.00 | 69 | 1015.9 |
| 20260509175505 | 64 | 39 | 2.0 | 3.0 | 0.00 | 0.02 | 0.00 | 67 | 1015.9 |
| 20260509175010 | 64 | 42 | 3.0 | 3.0 | 0.00 | 0.02 | 0.00 | 67 | 1015.9 |
| 20260509174507 | 65 | 46 | 1.0 | 6.0 | 0.00 | 0.02 | 0.00 | 66 | 1015.9 |
| 20260509174006 | 65 | 36 | 4.0 | 6.0 | 0.00 | 0.02 | 0.00 | 65 | 1015.8 |
| 20260509173505 | 65 | 30 | 2.0 | 6.0 | 0.00 | 0.02 | 0.00 | 64 | 1015.9 |
| 20260509173007 | 66 | 44 | 4.0 | 7.0 | 0.00 | 0.02 | 0.00 | 63 | 1015.8 |
| 20260509172505 | 66 | 49 | 3.0 | 7.0 | 0.00 | 0.02 | 0.00 | 62 | 1015.7 |
| 20260509172007 | 66 | 35 | 3.0 | 6.0 | 0.00 | 0.02 | 0.00 | 61 | 1015.7 |
| 20260509171505 | 67 | 39 | 4.0 | 8.0 | 0.00 | 0.02 | 0.00 | 60 | 1015.6 |
| 20260509171007 | 67 | 45 | 3.0 | 5.0 | 0.00 | 0.02 | 0.00 | 60 | 1015.6 |